EN

Hourly Weather Barshatas

Today, 23 July, Friday

Time Temperature Precipitation Wind Pressure Humidity
00:00 +21°C° 0 mm 3 mps 697 mmHg 59%
01:00 +21°C° 0 mm 3 mps 697 mmHg 58%
02:00 +21°C° 0 mm 3 mps 696 mmHg 58%
03:00 +21°C° 0 mm 3 mps 696 mmHg 57%
04:00 +21°C° 0 mm 2 mps 697 mmHg 57%
05:00 +20°C° 0 mm 3 mps 697 mmHg 57%
06:00 +23°C° 0 mm 2 mps 697 mmHg 52%
07:00 +25°C° 0 mm 2 mps 697 mmHg 46%
08:00 +27°C° 0 mm 2 mps 698 mmHg 40%
09:00 +28°C° 0 mm 2 mps 698 mmHg 37%
10:00 +29°C° 0 mm 1 mps 698 mmHg 34%
11:00 +28°C° 0 mm 0 mps 698 mmHg 31%
12:00 +31°C° 0 mm 1 mps 697 mmHg 30%
13:00 +33°C° 0 mm 3 mps 697 mmHg 28%
14:00 +33°C° 0 mm 4 mps 697 mmHg 26%
15:00 +32°C° 0 mm 5 mps 697 mmHg 28%
16:00 +32°C° 0 mm 6 mps 697 mmHg 31%
17:00 +29°C° 0 mm 5 mps 697 mmHg 32%
18:00 +28°C° 0 mm 5 mps 697 mmHg 37%
19:00 +26°C° 0 mm 4 mps 697 mmHg 42%
20:00 +25°C° 0 mm 4 mps 698 mmHg 47%
21:00 +24°C° 0 mm 3 mps 698 mmHg 47%
22:00 +24°C° 0 mm 3 mps 698 mmHg 47%
23:00 +23°C° 0 mm 2 mps 698 mmHg 48%

Tomorrow, 24 July, Saturday

Time Temperature Precipitation Wind Pressure Humidity
00:00 +23°C° 0 mm 2 mps 698 mmHg 49%
01:00 +23°C° 0 mm 2 mps 698 mmHg 50%
02:00 +21°C° 0 mm 2 mps 698 mmHg 51%
03:00 +21°C° 0 mm 2 mps 698 mmHg 50%
04:00 +21°C° 0 mm 2 mps 698 mmHg 50%
05:00 +21°C° 0 mm 2 mps 699 mmHg 50%
06:00 +25°C° 0 mm 3 mps 699 mmHg 44%
07:00 +27°C° 0 mm 3 mps 700 mmHg 38%
08:00 +29°C° 0 mm 3 mps 700 mmHg 33%
09:00 +30°C° 0 mm 3 mps 700 mmHg 29%
10:00 +31°C° 0 mm 2 mps 700 mmHg 26%
11:00 +31°C° 0 mm 2 mps 700 mmHg 23%
12:00 +32°C° 0 mm 2 mps 700 mmHg 21%
13:00 +34°C° 0 mm 2 mps 700 mmHg 19%
14:00 +35°C° 0 mm 3 mps 700 mmHg 18%
15:00 +35°C° 0 mm 3 mps 700 mmHg 18%
16:00 +35°C° 0 mm 3 mps 699 mmHg 18%
17:00 +35°C° 0 mm 3 mps 699 mmHg 18%
18:00 +34°C° 0 mm 3 mps 700 mmHg 21%
19:00 +32°C° 0 mm 4 mps 700 mmHg 25%
20:00 +29°C° 0 mm 4 mps 700 mmHg 28%
21:00 +28°C° 0 mm 4 mps 700 mmHg 32%
22:00 +27°C° 0 mm 4 mps 700 mmHg 36%
23:00 +26°C° 0 mm 3 mps 700 mmHg 40%

Day after tomorrow, 25 July, Sunday

Time Temperature Precipitation Wind Pressure Humidity
00:00 +25°C° 0 mm 3 mps 700 mmHg 42%
01:00 +25°C° 0 mm 3 mps 700 mmHg 45%
02:00 +24°C° 0 mm 2 mps 699 mmHg 48%
03:00 +24°C° 0 mm 2 mps 700 mmHg 48%
04:00 +24°C° 0 mm 1 mps 700 mmHg 49%
05:00 +24°C° 0 mm 1 mps 700 mmHg 50%
06:00 +26°C° 0 mm 1 mps 700 mmHg 44%
07:00 +28°C° 0 mm 1 mps 700 mmHg 38%
08:00 +30°C° 0 mm 1 mps 701 mmHg 33%
09:00 +31°C° 0 mm 2 mps 701 mmHg 28%
10:00 +34°C° 0 mm 2 mps 701 mmHg 24%
11:00 +35°C° 0 mm 3 mps 700 mmHg 20%
12:00 +36°C° 0 mm 3 mps 700 mmHg 18%
13:00 +37°C° 0 mm 4 mps 700 mmHg 16%
14:00 +38°C° 0 mm 4 mps 700 mmHg 15%
15:00 +38°C° 0 mm 4 mps 699 mmHg 15%
16:00 +38°C° 0 mm 4 mps 699 mmHg 14%
17:00 +39°C° 0 mm 5 mps 699 mmHg 14%
18:00 +36°C° 0 mm 5 mps 699 mmHg 18%
19:00 +34°C° 0 mm 6 mps 699 mmHg 21%
20:00 +33°C° 0 mm 7 mps 699 mmHg 24%
21:00 +30°C° 0 mm 6 mps 699 mmHg 29%
22:00 +29°C° 0 mm 5 mps 699 mmHg 34%
23:00 +27°C° 0 mm 4 mps 699 mmHg 39%

26 July, Monday

Time Temperature Precipitation Wind Pressure Humidity
00:00 +27°C° 0 mm 3 mps 699 mmHg 39%
01:00 +26°C° 0 mm 3 mps 699 mmHg 40%
02:00 +26°C° 0 mm 2 mps 698 mmHg 40%
03:00 +25°C° 0.1 mm 3 mps 699 mmHg 44%
04:00 +25°C° 0.1 mm 3 mps 699 mmHg 47%
05:00 +23°C° 0.1 mm 4 mps 699 mmHg 50%
06:00 +25°C° 0.1 mm 5 mps 699 mmHg 49%
07:00 +26°C° 0.1 mm 6 mps 700 mmHg 48%
08:00 +27°C° 0.1 mm 6 mps 700 mmHg 46%
09:00 +28°C° 0 mm 6 mps 700 mmHg 44%
10:00 +28°C° 0 mm 6 mps 700 mmHg 42%
11:00 +29°C° 0 mm 5 mps 700 mmHg 41%
12:00 +30°C° 0 mm 5 mps 700 mmHg 37%
13:00 +32°C° 0 mm 5 mps 700 mmHg 33%
14:00 +33°C° 0 mm 5 mps 700 mmHg 30%
15:00 +32°C° 0 mm 6 mps 700 mmHg 29%
16:00 +32°C° 0 mm 6 mps 700 mmHg 28%
17:00 +32°C° 0 mm 7 mps 700 mmHg 28%
18:00 +29°C° 0 mm 7 mps 700 mmHg 29%
19:00 +28°C° 0 mm 7 mps 700 mmHg 30%
20:00 +26°C° 0 mm 7 mps 700 mmHg 32%
21:00 +24°C° 0 mm 7 mps 700 mmHg 33%
22:00 +23°C° 0 mm 8 mps 700 mmHg 34%
23:00 +22°C° 0 mm 8 mps 700 mmHg 35%

27 July, Tuesday

Time Temperature Precipitation Wind Pressure Humidity
00:00 +21°C° 0 mm 8 mps 700 mmHg 39%
01:00 +20°C° 0 mm 8 mps 700 mmHg 42%
02:00 +18°C° 0 mm 8 mps 700 mmHg 46%
03:00 +18°C° 0 mm 8 mps 700 mmHg 52%
04:00 +17°C° 0 mm 7 mps 700 mmHg 57%
05:00 +16°C° 0 mm 7 mps 700 mmHg 63%
06:00 +18°C° 0 mm 7 mps 701 mmHg 56%
07:00 +20°C° 0 mm 8 mps 701 mmHg 49%
08:00 +21°C° 0 mm 8 mps 702 mmHg 41%
09:00 +22°C° 0 mm 8 mps 702 mmHg 38%
10:00 +23°C° 0 mm 8 mps 702 mmHg 35%
11:00 +24°C° 0 mm 7 mps 702 mmHg 32%
12:00 +26°C° 0 mm 7 mps 701 mmHg 30%
13:00 +26°C° 0 mm 7 mps 701 mmHg 28%
14:00 +27°C° 0 mm 7 mps 701 mmHg 25%
15:00 +26°C° 0 mm 7 mps 701 mmHg 25%
16:00 +26°C° 0 mm 7 mps 701 mmHg 24%
17:00 +26°C° 0 mm 7 mps 701 mmHg 23%
18:00 +23°C° 0 mm 7 mps 701 mmHg 27%
19:00 +22°C° 0 mm 7 mps 701 mmHg 31%
20:00 +20°C° 0 mm 7 mps 701 mmHg 35%
21:00 +18°C° 0 mm 7 mps 701 mmHg 38%
22:00 +17°C° 0 mm 6 mps 701 mmHg 41%
23:00 +16°C° 0 mm 5 mps 701 mmHg 43%

28 July, Wednesday

Time Temperature Precipitation Wind Pressure Humidity
00:00 +16°C° 0 mm 5 mps 701 mmHg 44%
01:00 +15°C° 0 mm 5 mps 701 mmHg 45%
02:00 +14°C° 0 mm 5 mps 700 mmHg 47%
03:00 +14°C° 0 mm 5 mps 700 mmHg 48%
04:00 +14°C° 0 mm 4 mps 700 mmHg 49%
05:00 +13°C° 0 mm 4 mps 701 mmHg 51%
06:00 +15°C° 0 mm 4 mps 701 mmHg 45%
07:00 +17°C° 0 mm 5 mps 701 mmHg 40%
08:00 +19°C° 0 mm 6 mps 701 mmHg 35%
09:00 +21°C° 0 mm 6 mps 701 mmHg 32%
10:00 +22°C° 0 mm 6 mps 701 mmHg 29%
11:00 +23°C° 0 mm 5 mps 701 mmHg 26%
12:00 +25°C° 0 mm 5 mps 701 mmHg 24%
13:00 +24°C° 0 mm 6 mps 700 mmHg 23%
14:00 +26°C° 0 mm 6 mps 700 mmHg 21%
15:00 +26°C° 0 mm 6 mps 700 mmHg 21%
16:00 +26°C° 0 mm 6 mps 700 mmHg 22%
17:00 +26°C° 0 mm 7 mps 700 mmHg 22%
18:00 +23°C° 0 mm 6 mps 700 mmHg 24%
19:00 +21°C° 0 mm 6 mps 700 mmHg 27%
20:00 +20°C° 0 mm 6 mps 700 mmHg 30%
21:00 +19°C° 0 mm 6 mps 700 mmHg 31%
22:00 +17°C° 0 mm 5 mps 700 mmHg 32%
23:00 +16°C° 0 mm 5 mps 700 mmHg 33%
Show more

We Need Your Consent

Meteoprog and our Service Providers may store and access personal data such as cookies, device identifiers or other similar technologies on your device and process such data to personalise content and ads, as well as provide social media features and to analyse the traffic.

  • Store and/or access information on your device

    Cookies, device identifiers or other information can be stored or accessed on your device for the purposes indicated above.

  • Personalised ads and content, ad and content measurement, audience insights, and products development

    Ads and content can be personalised based on a profile. More data can be added to better personalise ads and content. Ad and content performance can be measured. Insights about the audience who saw the ads and content can be derived. Such data can be used to develop or improve user’s experience, systems and software.

By clicking ‘I Agree’ you will allow the use of indicated cookies, device identifiers, web beacons or other similar technologies. Your settings can be changed in the browser on your device.

For certain purposes, legitimate interests may be relied on, rather than consent. You can read more about this in our Privacy and Cookie Policy.